千帆星座-21 (QIANFAN-21)

导读

QIANFAN-21 是中国北斗卫星导航系统的重要组成部分,主要用于提供高精度定位、导航和授时服务。该卫星采用先进技术和稳定平台,具备更强的信号覆盖能力和抗干扰性能,提升了系统的整体可靠性与全球服务能力。QIANFAN-21 的成功发射进一步完善了北斗三号系统的星座布局,为交通运输、应急救援、农业、电力等领域提供更精准的时空信息服务,增强了中国在全球卫星导航领域的竞争力和自主保障能力。

基本信息
目录编号:
61554
目录名称:
QIANFAN-21
国际标识:
2024-185C
轨道中心:
EARTH
卫星名称:
千帆星座-21
卫星全名:
千帆星座-21 (QIANFAN-21)
卫星状态:
在轨 (已飞行605 天)
发射日期:
2024-10-15 UTC
国别 :
中国 (CN)
星等 :
--
轨道信息
数据来源 国际轨道数据 AOE轨道数据
星历时间 2026-06-12T14:39:06+0800
13小时前
查看轨道信息
2026-06-11T02:00:00+0800
2天前
查看轨道信息
半长轴 7193.868km 7193.872km
偏心率 0.0012295 0.0012426
轨道倾角 88.976° 88.976°
近地点辐角 123.449° 126.715°
升交点赤经 55.713° 55.893°
平近点角 236.788° 336.026°
近地点 806.886km 806.795km
远地点 824.576km 824.675km
周期 101.205分钟 101.205分钟
每日圈数 14.2285 14.228488
详细信息
卫星平台:
21
覆盖范围:
全球
运营商:
上海垣信卫星科技有限公司
运营商所在国:
中国
使用方式:
暂无
卫星简介
千帆星座,也被称为“G60星链”计划,是中国版“星链”的重要组成部分,旨在打造一个由1.4万多颗低轨宽频多媒体卫星构成的庞大星座。千帆星座计划由上海垣信卫星科技有限公司负责实施,于2023年启动建设。该项目是我国第二个低轨卫星大星座,旨在通过构建庞大的卫星网络,为全球用户提供高质量的通信和宽带互联网服务。
2D轨道图
3D轨道图
轨道高度分析图
轨道倾角分析图
轨道综合分析图
查看轨道综合分析图